2024-247U

Last updated on Tue Jan 21 2025 00:02:04 GMT+0000 (Coordinated Universal Time)

1 62395U 24247U 25020.56451830 .00027439 00000+0 12381-2 0 9996 2 62395 44.9956 198.5878 0003526 182.0072 178.0794 15.20582480 4720
UTC large
Height (km)
Speed (km/s)
/
Latitude / Longitude
Inclination (degrees)
Orbital Period (minutes)
Azimuth
Elevation
Range (km)
Doppler Factor

Next 0 passes for location: London (51.5072 / 0.1276)

Sorry there are no passes over London.